Probability
0 0 0 0 0 0 0 0 0 0 1 1 1 2 3 2 2 5 9 13 16 16 17 16 10 5 3 2 2 3 3 3 1 0 0 0 0 0 0 0 0 0 0 0
0 0 0 0 0 0 0 0 0 0 0 0 1 2 2 2 3 5 8 12 15 16 15 14 11 7 4 3 2 3 3 3 2 0 0 0 0 0 1 1 1 0 0 0
0 0 0 0 0 0 0 0 0 0 0 0 1 1 1 2 4 5 7 10 13 14 14 12 11 9 8 7 5 3 3 2 2 1 1 1 0 0 1 2 2 1 1 0
0 0 0 0 0 0 0 0 0 0 1 0 0 0 1 2 5 7 7 8 10 12 12 10 9 10 11 11 9 6 3 2 2 3 2 1 1 1 1 2 2 3 3 2
0 0 0 0 0 0 0 0 0 0 1 1 0 0 1 2 6 8 7 6 7 10 10 8 8 10 13 14 14 11 8 5 4 5 5 3 3 4 4 4 4 5 5 4
0 0 0 0 0 0 0 0 1 1 1 2 1 1 2 3 5 6 6 6 7 8 9 9 11 15 16 16 18 17 14 11 9 9 8 7 8 8 8 8 7 6 6 6
0 0 0 0 0 0 1 1 2 2 2 3 2 2 2 5 7 7 7 8 8 9 10 11 15 19 20 19 19 18 17 17 17 15 13 12 13 12 11 11 9 7 7 7
0 0 0 1 1 2 3 3 2 3 3 3 3 2 3 6 9 10 10 11 12 13 14 15 17 21 23 22 20 19 18 21 26 26 21 18 19 18 16 14 10 8 8 8
0 0 1 1 2 3 2 2 2 3 5 5 3 2 4 7 10 12 14 16 17 18 19 18 18 22 26 27 26 24 24 27 34 35 30 26 25 24 21 16 11 9 9 8
1 1 1 1 2 2 1 1 2 4 7 8 6 4 6 9 13 15 16 17 18 21 23 22 22 25 29 33 35 34 34 36 39 40 37 33 31 27 22 18 14 11 10 9
0 0 0 0 1 1 1 2 3 6 10 11 10 8 8 11 15 16 16 14 14 17 21 24 27 30 33 38 42 44 46 46 44 44 42 38 33 26 19 15 12 10 9 8
0 0 0 0 1 2 3 4 5 7 11 12 11 9 9 11 14 15 14 12 12 13 18 25 30 33 36 39 43 48 52 52 49 48 46 40 32 23 13 7 5 4 4 4
0 0 0 0 1 2 4 5 5 7 9 10 8 8 10 13 14 13 13 13 13 15 19 24 28 30 32 36 40 44 47 47 46 46 44 39 31 22 13 6 2 0 0 0
0 0 0 0 0 1 2 3 4 6 7 7 8 9 12 15 14 11 11 12 14 16 18 20 21 22 24 29 35 36 34 34 37 39 37 32 27 21 16 10 6 3 1 0
0 0 0 1 0 0 1 2 3 5 7 8 10 11 13 13 12 10 10 10 11 13 14 14 15 17 20 24 27 26 24 24 28 31 29 25 22 18 14 12 10 8 4 2
1 0 1 1 0 0 1 1 3 6 7 9 11 12 12 11 10 9 10 10 9 10 12 13 14 17 20 20 20 20 19 19 20 22 23 22 20 16 13 11 10 9 6 4
1 1 2 2 1 1 1 1 3 5 7 9 10 11 12 11 9 8 9 9 8 9 10 13 15 17 18 18 17 17 17 16 15 18 21 22 21 17 13 11 10 8 6 4
1 2 3 3 3 2 2 3 3 5 6 7 9 10 11 10 8 7 6 6 6 6 7 9 11 14 16 16 15 14 14 14 14 15 18 19 19 16 13 11 9 7 4 2
0 1 2 3 3 2 2 2 3 4 5 5 6 7 7 7 5 4 4 3 2 3 4 4 6 9 12 12 11 11 12 11 11 11 11 12 13 12 10 9 7 5 2 1
0 0 1 1 1 1 1 1 1 2 2 2 3 4 4 4 3 2 2 1 0 1 1 2 3 4 6 6 6 8 8 7 7 7 7 8 9 8 6 5 3 1 0 0
0 0 0 0 0 0 0 0 0 0 0 0 1 2 2 2 1 1 1 0 0 0 0 1 2 1 1 1 2 3 4 4 4 5 6 6 6 5 4 2 1 1 0 0
0 0 0 0 0 0 0 0 0 0 0 0 1 1 1 1 0 0 0 0 0 0 0 0 0 0 0 0 0 1 1 1 2 3 4 4 4 3 3 3 2 2 1 1
0 0 0 0 0 0 0 0 0 0 0 0 0 0 0 0 0 0 0 0 0 0 0 0 0 0 0 0 0 0 0 0 1 2 3 3 3 3 3 3 3 3 2 2
0 0 0 0 0 0 0 0 0 0 0 0 0 0 0 0 0 0 0 0 0 0 0 0 0 0 0 0 0 0 0 0 1 2 2 2 2 2 2 2 2 2 2 1
0 0 0 0 0 0 0 0 0 0 0 0 0 0 0 0 0 0 0 0 0 0 0 0 0 0 0 0 0 0 0 0 0 1 1 1 1 1 1 1 1 1 1 0
0 0 0 0 0 0 0 0 0 0 0 0 0 0 0 0 0 0 0 0 0 0 0 0 0 0 0 0 0 0 0 0 0 0 0 0 0 0 0 0 0 0 0 0
0 0 0 0 0 0 0 0 0 0 0 0 0 0 0 0 0 0 0 0 0 0 0 0 0 0 0 0 0 0 0 0 0 0 0 0 0 0 0 0 0 0 0 0
Wind_Speed
9 7 8 10 11 11 13 13 12 10 9 6 5 3 3 6 9 11 13 15 16 16 15 15 15 15 14 14 14 14 14 13 13 12 11 11 11 10 10 10 10 9 8 8
10 9 9 12 13 13 13 13 13 13 11 6 4 3 3 7 10 11 13 15 16 16 16 16 16 16 15 15 14 14 14 14 13 12 12 12 12 11 11 10 10 9 9 9
10 8 9 13 12 12 12 11 11 12 8 5 4 2 2 6 9 11 12 14 15 16 16 15 16 16 16 15 15 15 14 14 13 13 13 13 13 12 12 11 11 10 10 10
9 7 12 4 1 5 7 7 7 7 6 6 4 3 2 4 6 9 10 12 13 14 15 15 15 16 15 15 15 15 15 14 14 14 14 13 13 13 12 11 11 10 10 10
7 10 9 5 3 4 6 5 4 5 5 5 5 4 4 3 5 6 8 10 10 12 14 14 15 15 15 15 16 16 16 15 15 15 14 14 14 13 12 11 11 11 10 10
8 9 8 1 2 2 6 5 1 4 4 4 5 6 2 2 2 4 5 7 8 10 11 13 14 15 16 16 16 16 16 16 15 15 14 14 14 13 11 11 11 10 10 10
10 9 5 3 3 3 6 1 5 5 4 4 3 4 4 2 1 1 3 5 8 9 10 12 14 15 16 16 16 16 15 14 14 14 14 13 12 11 11 11 11 10 10 10
7 9 3 5 2 2 4 5 5 6 5 4 4 4 3 2 0 1 3 5 7 8 8 10 13 14 15 15 15 14 14 14 14 14 13 12 12 11 11 11 10 10 9 9
3 1 4 4 3 3 4 5 6 6 6 4 4 4 3 2 0 1 2 4 5 7 8 9 11 13 14 13 13 13 13 13 13 13 12 11 12 12 11 10 9 9 9 9
3 2 0 1 2 3 4 5 6 6 6 5 4 4 3 1 0 1 2 3 4 6 7 8 9 11 11 11 12 13 13 13 12 12 12 11 10 10 10 10 10 9 9 8
4 2 1 1 3 4 4 5 6 5 5 4 3 2 2 1 1 1 1 2 3 5 6 6 7 8 9 10 11 12 13 12 12 12 11 10 10 8 9 9 7 7 7 8
3 2 3 3 4 5 4 4 5 5 5 3 2 1 1 2 2 2 2 3 3 4 5 5 6 6 7 9 10 11 11 11 10 9 9 9 9 8 4 3 4 4 3 4
4 4 3 4 4 4 3 3 3 3 3 3 3 2 3 4 4 4 5 5 4 4 4 5 5 5 6 8 9 9 9 8 8 8 9 8 8 8 8 6 4 4 5 5
2 2 3 2 2 2 2 3 3 4 4 4 4 5 6 6 6 7 6 6 6 6 6 6 5 5 5 6 7 7 7 7 6 6 6 7 7 7 6 7 7 7 7 8
2 2 2 1 0 1 2 3 5 5 6 7 7 7 7 8 8 8 8 8 8 8 7 7 6 5 5 6 6 6 6 5 5 5 5 5 5 5 5 5 5 5 5 6
1 1 1 2 3 4 4 6 7 7 7 8 8 8 9 10 10 10 10 9 10 10 8 8 8 6 5 6 6 5 4 5 4 4 4 4 4 3 3 3 3 3 4 3
2 2 3 4 5 6 6 7 8 8 9 9 10 10 11 12 12 12 11 11 11 10 9 9 8 7 6 6 5 4 5 5 4 3 3 3 3 3 3 3 3 3 2 2
2 3 4 5 6 8 9 9 10 10 10 10 11 12 12 12 12 12 11 11 11 12 11 10 9 7 7 6 5 4 4 4 4 3 3 2 2 2 2 2 2 2 1 3
5 6 7 8 9 9 10 11 11 11 11 11 12 13 12 12 12 12 11 11 12 12 11 10 9 8 8 8 5 4 4 5 4 4 3 2 1 1 1 1 1 1 1 1
8 9 10 11 11 11 11 11 12 12 11 11 12 13 13 12 12 11 12 12 11 9 8 8 8 9 8 7 6 5 5 5 4 3 2 2 2 1 1 1 1 1 1 1
10 11 13 13 13 13 12 11 11 12 11 11 12 12 11 11 10 10 10 10 10 10 9 9 8 8 7 6 5 5 5 5 4 3 3 2 2 2 1 2 2 2 2 2
11 12 13 13 13 13 11 11 12 12 12 11 12 11 11 11 11 11 11 9 8 9 7 8 9 10 9 6 6 6 6 5 4 4 4 3 3 3 3 3 3 3 3 3
11 12 12 13 13 13 13 12 12 11 11 11 10 10 10 9 8 8 8 7 7 9 8 9 9 10 9 6 7 6 6 6 5 5 4 4 4 3 3 3 3 3 3 4
11 11 11 12 13 13 13 11 10 9 10 10 10 10 8 8 8 8 7 7 8 8 7 8 9 9 7 6 7 7 6 6 6 5 5 4 4 4 4 4 3 3 3 4
10 10 11 11 11 9 10 9 10 10 10 8 10 10 9 8 7 7 7 8 7 6 6 7 7 8 6 7 7 7 6 7 6 5 5 5 5 4 4 4 4 4 4 4
9 9 9 9 8 6 6 7 7 7 7 7 7 8 7 7 7 6 5 7 8 6 5 5 6 5 6 7 7 7 6 5 5 5 6 5 5 5 4 4 5 4 4 4
10 9 7 7 7 7 7 7 7 7 7 7 7 7 7 6 6 6 6 6 6 6 6 6 6 6 6 7 7 6 6 6 6 6 5 5 5 5 5 5 5 4 4 4
Wind_Direction
264 272 260 255 248 236 238 253 266 271 273 284 298 289 223 185 175 177 177 179 180 179 179 180 180 181 182 182 180 178 180 181 180 179 179 178 177 178 179 184 186 185 188 190
254 252 254 257 253 248 246 251 257 262 265 283 299 293 212 186 181 182 183 184 183 182 182 183 183 183 183 183 181 181 183 184 181 181 180 181 181 180 181 187 190 187 193 195
256 248 253 250 245 246 244 244 254 259 267 282 275 274 224 192 188 189 188 186 186 186 186 186 186 184 184 183 181 183 186 185 183 183 184 184 185 183 185 188 189 193 197 201
260 248 243 247 263 262 256 255 261 266 276 276 280 271 222 189 190 190 189 187 188 189 188 189 186 184 185 182 183 185 187 187 185 186 186 185 186 187 189 190 193 197 200 203
251 245 248 235 230 256 253 250 277 275 278 273 256 226 193 184 193 195 193 190 189 191 187 186 185 183 183 183 185 188 189 190 188 188 188 187 190 190 191 192 196 200 202 205
238 248 252 187 71 305 261 229 9 307 297 290 249 227 156 97 182 194 197 193 190 190 186 183 183 181 184 186 188 192 192 191 189 189 191 192 192 192 191 194 200 204 204 206
240 241 245 37 354 255 237 56 10 339 320 300 278 305 351 353 309 215 195 190 189 188 187 183 179 181 188 190 193 194 192 190 189 189 191 192 190 190 192 196 200 208 206 207
234 237 220 35 346 329 11 1 343 334 330 321 310 309 320 331 293 204 187 183 183 185 186 181 180 184 190 194 193 190 189 188 188 188 190 187 187 189 193 198 198 203 208 213
268 309 42 18 23 5 333 323 324 324 324 317 305 308 320 327 294 179 174 173 178 178 177 179 183 189 194 193 188 186 186 187 186 186 190 187 186 188 190 195 205 205 205 210
237 199 26 15 22 352 335 328 320 317 313 311 304 307 312 313 87 141 150 166 170 170 171 176 183 191 195 186 184 183 184 184 183 183 186 188 191 191 195 195 204 208 209 213
244 259 275 6 10 347 333 332 329 328 322 312 311 321 331 358 51 127 132 151 163 167 166 169 173 182 184 180 179 182 183 182 182 183 184 184 193 199 203 203 207 213 213 211
278 291 290 307 331 329 324 331 337 340 343 345 357 358 40 68 63 71 90 108 133 150 155 157 161 169 174 175 178 179 179 181 183 182 180 186 186 189 190 221 168 208 267 266
306 315 307 301 316 324 326 339 348 356 360 13 39 55 75 80 75 75 81 88 98 113 127 138 144 153 162 168 171 175 175 176 180 182 178 187 187 191 187 187 188 206 224 237
307 296 286 292 315 354 20 31 39 42 49 56 64 71 76 76 75 72 73 76 85 96 103 109 113 119 138 149 155 162 167 165 175 175 177 181 185 195 199 191 186 193 202 215
318 300 272 276 45 69 78 86 82 72 69 70 69 73 76 76 75 73 72 76 79 80 81 87 92 95 112 128 135 145 152 151 161 162 166 170 178 191 199 198 197 190 185 179
334 59 95 111 98 90 84 82 84 79 75 74 71 73 79 79 79 76 73 72 74 71 67 70 74 79 97 114 121 125 118 102 128 151 157 164 170 179 188 190 197 198 204 192
133 116 116 106 97 90 84 82 82 83 81 80 78 80 84 82 79 75 71 68 68 68 63 61 62 66 78 88 102 111 116 116 129 147 143 141 156 173 181 191 195 198 200 135
110 111 107 106 100 94 89 86 86 84 81 81 82 80 77 76 74 71 71 71 69 63 55 51 53 58 64 69 73 85 100 110 116 109 106 112 138 159 173 187 197 204 194 153
102 103 100 98 98 95 93 90 88 85 81 79 79 77 75 74 72 69 67 65 60 56 47 45 44 57 61 57 55 72 78 83 89 92 97 110 133 113 125 175 210 213 217 204
97 96 97 97 98 96 93 90 88 85 81 82 81 79 75 71 71 69 65 60 50 45 42 41 47 52 54 48 38 63 67 71 74 80 82 85 84 73 55 42 26 348 328 274
93 95 96 95 95 92 90 90 88 86 84 83 82 80 77 72 68 65 63 60 45 36 43 48 46 44 44 42 43 54 56 57 52 50 53 47 47 45 35 26 14 2 357 344
92 91 93 94 92 88 85 85 84 83 81 80 80 80 79 75 70 66 61 56 48 26 37 48 45 32 20 21 51 52 51 49 45 41 42 40 36 31 29 22 19 15 6 0
84 87 90 90 90 88 83 79 79 80 78 74 71 70 69 64 62 65 64 51 48 35 40 44 27 15 4 32 46 46 47 45 44 41 38 35 35 32 28 18 13 10 3 352
81 83 84 87 88 86 82 78 77 77 78 76 72 68 68 70 67 63 66 63 47 43 51 44 23 10 8 39 44 43 40 37 37 38 36 35 32 28 23 12 3 357 353 345
84 84 83 83 82 82 85 86 83 78 74 72 69 65 60 58 59 58 59 60 56 51 58 53 29 10 27 39 39 40 40 35 24 21 28 24 20 20 16 10 3 352 348 349
83 80 77 76 75 74 74 72 71 69 66 64 61 59 59 61 61 60 59 59 54 44 43 45 39 27 33 33 34 31 30 33 26 22 22 15 13 11 9 1 352 347 345 344
87 84 79 75 70 65 65 64 64 62 59 56 56 54 52 52 51 49 48 46 43 40 35 31 30 30 30 30 30 27 26 24 19 13 11 10 8 5 3 353 348 345 335 331